Time,TemperatureF,DewpointF,PressureIn,WindDirection,WindDirectionDegrees,WindSpeedMPH,WindSpeedGustMPH,Humidity,HourlyPrecipIn,Conditions,Clouds,dailyrainin,SolarRadiationWatts/m^2,SoftwareType,DateUTC
2013-04-14 00:00:00,50.6,20.3,29.81,SSW,202,6.0,15.0,30,0.00,,,0.00,0,LWC V2.00 B727,2013-04-14 06:00:00,
2013-04-14 00:10:00,50.1,21.4,29.81,WSW,248,6.0,16.0,32,0.00,,,0.00,0,LWC V2.00 B727,2013-04-14 06:10:00,
2013-04-14 00:20:00,50.1,21.4,29.81,WSW,248,6.0,16.0,32,0.00,,,0.00,0,LWC V2.00 B727,2013-04-14 06:20:00,
2013-04-14 00:30:00,50.1,21.4,29.81,WSW,248,6.0,16.0,32,0.00,,,0.00,0,LWC V2.00 B727,2013-04-14 06:30:00,
2013-04-14 00:40:00,50.2,22.2,29.80,WSW,248,6.0,19.0,33,0.00,,,0.00,0,LWC V2.00 B727,2013-04-14 06:40:00,
2013-04-14 00:50:00,50.2,22.2,29.80,WSW,248,6.0,19.0,33,0.00,,,0.00,0,LWC V2.00 B727,2013-04-14 06:50:00,
2013-04-14 01:00:00,50.2,22.2,29.80,WSW,248,6.0,19.0,33,0.00,,,0.00,0,LWC V2.00 B727,2013-04-14 07:00:00,
2013-04-14 01:10:00,49.4,22.9,29.78,WSW,248,6.0,18.0,35,0.00,,,0.00,0,LWC V2.00 B727,2013-04-14 07:10:00,
2013-04-14 01:20:00,49.4,22.9,29.78,WSW,248,6.0,18.0,35,0.00,,,0.00,0,LWC V2.00 B727,2013-04-14 07:20:00,
2013-04-14 01:30:00,49.4,22.9,29.78,WSW,248,6.0,18.0,35,0.00,,,0.00,0,LWC V2.00 B727,2013-04-14 07:30:00,
2013-04-14 01:40:00,49.0,23.2,29.76,WSW,248,8.0,24.0,36,0.00,,,0.00,0,LWC V2.00 B727,2013-04-14 07:40:00,
2013-04-14 01:50:00,49.0,23.2,29.76,WSW,248,8.0,24.0,36,0.00,,,0.00,0,LWC V2.00 B727,2013-04-14 07:50:00,
2013-04-14 02:00:00,49.0,23.2,29.76,WSW,248,8.0,24.0,36,0.00,,,0.00,0,LWC V2.00 B727,2013-04-14 08:00:00,
2013-04-14 02:10:00,47.6,23.3,29.76,WSW,248,6.0,19.0,38,0.00,,,0.00,0,LWC V2.00 B727,2013-04-14 08:10:00,
2013-04-14 02:20:00,47.6,23.3,29.76,WSW,248,6.0,19.0,38,0.00,,,0.00,0,LWC V2.00 B727,2013-04-14 08:20:00,
2013-04-14 02:30:00,47.6,23.3,29.76,WSW,248,6.0,19.0,38,0.00,,,0.00,0,LWC V2.00 B727,2013-04-14 08:30:00,
2013-04-14 02:40:00,46.7,23.1,29.75,WSW,248,6.0,15.0,39,0.00,,,0.00,0,LWC V2.00 B727,2013-04-14 08:40:00,
2013-04-14 02:50:00,46.7,23.1,29.75,WSW,248,6.0,15.0,39,0.00,,,0.00,0,LWC V2.00 B727,2013-04-14 08:50:00,
2013-04-14 03:00:00,46.7,23.1,29.75,WSW,248,6.0,15.0,39,0.00,,,0.00,0,LWC V2.00 B727,2013-04-14 09:00:00,
2013-04-14 03:10:00,46.7,23.7,29.74,SW,225,7.0,19.0,40,0.00,,,0.00,0,LWC V2.00 B727,2013-04-14 09:10:00,
2013-04-14 03:20:00,46.7,23.7,29.74,SW,225,7.0,19.0,40,0.00,,,0.00,0,LWC V2.00 B727,2013-04-14 09:20:00,
2013-04-14 03:30:00,46.7,23.7,29.74,SW,225,7.0,19.0,40,0.00,,,0.00,0,LWC V2.00 B727,2013-04-14 09:30:00,
2013-04-14 03:40:00,46.1,23.1,29.73,SSW,202,7.0,20.0,40,0.00,,,0.00,0,LWC V2.00 B727,2013-04-14 09:40:00,
2013-04-14 03:50:00,46.1,23.1,29.73,SSW,202,7.0,20.0,40,0.00,,,0.00,0,LWC V2.00 B727,2013-04-14 09:50:00,
2013-04-14 04:00:00,45.5,23.2,29.72,SSW,202,8.0,20.0,41,0.00,,,0.00,0,LWC V2.00 B727,2013-04-14 10:00:00,
2013-04-14 04:10:00,45.5,23.2,29.72,SSW,202,8.0,20.0,41,0.00,,,0.00,0,LWC V2.00 B727,2013-04-14 10:10:00,
2013-04-14 04:20:00,45.5,23.2,29.72,SSW,202,8.0,20.0,41,0.00,,,0.00,0,LWC V2.00 B727,2013-04-14 10:20:00,
2013-04-14 04:30:00,44.5,22.9,29.71,SSW,202,7.0,17.0,42,0.00,,,0.00,0,LWC V2.00 B727,2013-04-14 10:30:00,
2013-04-14 04:40:00,44.5,22.9,29.71,SSW,202,7.0,17.0,42,0.00,,,0.00,0,LWC V2.00 B727,2013-04-14 10:40:00,
2013-04-14 04:50:00,44.5,22.9,29.71,SSW,202,7.0,17.0,42,0.00,,,0.00,0,LWC V2.00 B727,2013-04-14 10:50:00,
2013-04-14 05:00:00,44.2,22.0,29.70,SW,225,7.0,20.0,41,0.00,,,0.00,0,LWC V2.00 B727,2013-04-14 11:00:00,
2013-04-14 05:10:00,44.2,22.0,29.70,SW,225,7.0,20.0,41,0.00,,,0.00,0,LWC V2.00 B727,2013-04-14 11:10:00,
2013-04-14 05:20:00,44.2,22.0,29.70,SW,225,7.0,20.0,41,0.00,,,0.00,0,LWC V2.00 B727,2013-04-14 11:20:00,
2013-04-14 05:30:00,44.9,22.1,29.69,WSW,248,8.0,24.0,40,0.00,,,0.00,0,LWC V2.00 B727,2013-04-14 11:30:00,
2013-04-14 05:40:00,44.9,22.1,29.69,WSW,248,8.0,24.0,40,0.00,,,0.00,0,LWC V2.00 B727,2013-04-14 11:40:00,
2013-04-14 05:50:00,44.9,22.1,29.69,WSW,248,8.0,24.0,40,0.00,,,0.00,0,LWC V2.00 B727,2013-04-14 11:50:00,
2013-04-14 06:00:00,45.0,22.2,29.69,WSW,248,8.0,22.0,40,0.00,,,0.00,0,LWC V2.00 B727,2013-04-14 12:00:00,
2013-04-14 06:10:00,45.0,22.2,29.69,WSW,248,8.0,22.0,40,0.00,,,0.00,0,LWC V2.00 B727,2013-04-14 12:10:00,
2013-04-14 06:20:00,45.0,22.2,29.69,WSW,248,8.0,22.0,40,0.00,,,0.00,0,LWC V2.00 B727,2013-04-14 12:20:00,
2013-04-14 06:30:00,45.0,22.7,29.68,WSW,248,8.0,20.0,41,0.00,,,0.00,0,LWC V2.00 B727,2013-04-14 12:30:00,
2013-04-14 06:40:00,45.0,22.7,29.68,WSW,248,8.0,20.0,41,0.00,,,0.00,0,LWC V2.00 B727,2013-04-14 12:40:00,
2013-04-14 06:50:00,45.0,22.7,29.68,WSW,248,8.0,20.0,41,0.00,,,0.00,0,LWC V2.00 B727,2013-04-14 12:50:00,
2013-04-14 07:00:00,45.0,22.7,29.68,WSW,248,6.0,16.0,41,0.00,,,0.00,17,LWC V2.00 B727,2013-04-14 13:00:00,
2013-04-14 07:10:00,45.0,22.7,29.68,WSW,248,6.0,16.0,41,0.00,,,0.00,17,LWC V2.00 B727,2013-04-14 13:10:00,
2013-04-14 07:20:00,45.0,22.7,29.68,WSW,248,6.0,16.0,41,0.00,,,0.00,17,LWC V2.00 B727,2013-04-14 13:20:00,
2013-04-14 07:30:00,45.1,23.4,29.70,WSW,248,5.0,13.0,42,0.00,,,0.00,43,LWC V2.00 B727,2013-04-14 13:30:00,
2013-04-14 07:40:00,45.1,23.4,29.70,WSW,248,5.0,13.0,42,0.00,,,0.00,43,LWC V2.00 B727,2013-04-14 13:40:00,
2013-04-14 07:50:00,45.1,23.4,29.70,WSW,248,5.0,13.0,42,0.00,,,0.00,43,LWC V2.00 B727,2013-04-14 13:50:00,
2013-04-14 08:00:00,46.4,25.1,29.71,SW,225,6.0,19.0,43,0.00,,,0.00,117,LWC V2.00 B727,2013-04-14 14:00:00,
2013-04-14 08:10:00,46.4,25.1,29.71,SW,225,6.0,19.0,43,0.00,,,0.00,117,LWC V2.00 B727,2013-04-14 14:10:00,
2013-04-14 08:20:00,46.4,25.1,29.71,SW,225,6.0,19.0,43,0.00,,,0.00,117,LWC V2.00 B727,2013-04-14 14:20:00,
2013-04-14 08:30:00,46.4,25.1,29.71,SW,225,6.0,19.0,43,0.00,,,0.00,117,LWC V2.00 B727,2013-04-14 14:30:00,
2013-04-14 08:40:00,48.8,26.7,29.71,SW,225,7.0,19.0,42,0.00,,,0.00,353,LWC V2.00 B727,2013-04-14 14:40:00,
2013-04-14 08:50:00,48.8,26.7,29.71,SW,225,7.0,19.0,42,0.00,,,0.00,353,LWC V2.00 B727,2013-04-14 14:50:00,
2013-04-14 09:00:00,48.8,26.7,29.71,SW,225,7.0,19.0,42,0.00,,,0.00,353,LWC V2.00 B727,2013-04-14 15:00:00,
2013-04-14 09:10:00,49.7,25.8,29.70,SW,225,9.0,23.0,39,0.00,,,0.00,466,LWC V2.00 B727,2013-04-14 15:10:00,
2013-04-14 09:20:00,49.7,25.8,29.70,SW,225,9.0,23.0,39,0.00,,,0.00,466,LWC V2.00 B727,2013-04-14 15:20:00,
2013-04-14 09:30:00,49.7,25.8,29.70,SW,225,9.0,23.0,39,0.00,,,0.00,466,LWC V2.00 B727,2013-04-14 15:30:00,
2013-04-14 09:40:00,51.4,27.3,29.69,WSW,248,11.0,27.0,39,0.00,,,0.00,556,LWC V2.00 B727,2013-04-14 15:40:00,
2013-04-14 09:50:00,51.4,27.3,29.69,WSW,248,11.0,27.0,39,0.00,,,0.00,556,LWC V2.00 B727,2013-04-14 15:50:00,
2013-04-14 10:00:00,51.4,27.3,29.69,WSW,248,11.0,27.0,39,0.00,,,0.00,556,LWC V2.00 B727,2013-04-14 16:00:00,
2013-04-14 10:10:00,53.6,28.0,29.69,WSW,248,8.0,28.0,37,0.00,,,0.00,674,LWC V2.00 B727,2013-04-14 16:10:00,
2013-04-14 10:20:00,53.6,28.0,29.69,WSW,248,8.0,28.0,37,0.00,,,0.00,674,LWC V2.00 B727,2013-04-14 16:20:00,
2013-04-14 10:30:00,53.6,28.0,29.69,WSW,248,8.0,28.0,37,0.00,,,0.00,674,LWC V2.00 B727,2013-04-14 16:30:00,
2013-04-14 10:40:00,54.8,28.4,29.69,WSW,248,9.0,23.0,36,0.00,,,0.00,788,LWC V2.00 B727,2013-04-14 16:40:00,
2013-04-14 10:50:00,54.8,28.4,29.69,WSW,248,9.0,23.0,36,0.00,,,0.00,788,LWC V2.00 B727,2013-04-14 16:50:00,
2013-04-14 11:00:00,54.8,28.4,29.69,WSW,248,9.0,23.0,36,0.00,,,0.00,788,LWC V2.00 B727,2013-04-14 17:00:00,
2013-04-14 11:10:00,56.5,29.2,29.69,SW,225,8.0,28.0,35,0.00,,,0.00,886,LWC V2.00 B727,2013-04-14 17:10:00,
2013-04-14 11:20:00,56.5,29.2,29.69,SW,225,8.0,28.0,35,0.00,,,0.00,886,LWC V2.00 B727,2013-04-14 17:20:00,
2013-04-14 11:30:00,56.5,29.2,29.69,SW,225,8.0,28.0,35,0.00,,,0.00,886,LWC V2.00 B727,2013-04-14 17:30:00,
2013-04-14 11:40:00,57.2,29.8,29.69,WSW,248,9.0,28.0,35,0.00,,,0.00,925,LWC V2.00 B727,2013-04-14 17:40:00,
2013-04-14 11:50:00,57.2,29.8,29.69,WSW,248,9.0,28.0,35,0.00,,,0.00,925,LWC V2.00 B727,2013-04-14 17:50:00,
2013-04-14 12:00:00,57.2,29.8,29.69,WSW,248,9.0,28.0,35,0.00,,,0.00,925,LWC V2.00 B727,2013-04-14 18:00:00,
2013-04-14 12:10:00,57.5,29.4,29.69,WSW,248,9.0,27.0,34,0.00,,,0.00,969,LWC V2.00 B727,2013-04-14 18:10:00,
2013-04-14 12:20:00,57.5,29.4,29.69,WSW,248,9.0,27.0,34,0.00,,,0.00,969,LWC V2.00 B727,2013-04-14 18:20:00,
2013-04-14 12:30:00,57.5,29.4,29.69,WSW,248,9.0,27.0,34,0.00,,,0.00,969,LWC V2.00 B727,2013-04-14 18:30:00,
2013-04-14 12:40:00,59.9,29.2,29.69,SW,225,8.0,24.0,31,0.00,,,0.00,1060,LWC V2.00 B727,2013-04-14 18:40:00,
2013-04-14 12:50:00,59.9,29.2,29.69,SW,225,8.0,24.0,31,0.00,,,0.00,1060,LWC V2.00 B727,2013-04-14 18:50:00,
2013-04-14 13:00:00,59.9,29.2,29.69,SW,225,8.0,24.0,31,0.00,,,0.00,1060,LWC V2.00 B727,2013-04-14 19:00:00,
2013-04-14 13:10:00,61.0,30.1,29.69,WSW,248,8.0,24.0,31,0.00,,,0.00,1064,LWC V2.00 B727,2013-04-14 19:10:00,
2013-04-14 13:20:00,61.0,30.1,29.69,WSW,248,8.0,24.0,31,0.00,,,0.00,1064,LWC V2.00 B727,2013-04-14 19:20:00,
2013-04-14 13:30:00,61.0,30.1,29.69,WSW,248,8.0,24.0,31,0.00,,,0.00,1064,LWC V2.00 B727,2013-04-14 19:30:00,
2013-04-14 13:40:00,60.4,30.4,29.69,WSW,248,8.0,23.0,32,0.00,,,0.00,1010,LWC V2.00 B727,2013-04-14 19:40:00,
2013-04-14 13:50:00,60.4,30.4,29.69,WSW,248,8.0,23.0,32,0.00,,,0.00,1010,LWC V2.00 B727,2013-04-14 19:50:00,
2013-04-14 14:00:00,60.0,29.3,29.69,WSW,248,9.0,24.0,31,0.00,,,0.00,941,LWC V2.00 B727,2013-04-14 20:00:00,
2013-04-14 14:10:00,60.0,29.3,29.69,WSW,248,9.0,24.0,31,0.00,,,0.00,941,LWC V2.00 B727,2013-04-14 20:10:00,
2013-04-14 14:20:00,60.0,29.3,29.69,WSW,248,9.0,24.0,31,0.00,,,0.00,941,LWC V2.00 B727,2013-04-14 20:20:00,
2013-04-14 14:30:00,60.4,28.8,29.69,SW,225,8.0,32.0,30,0.00,,,0.00,876,LWC V2.00 B727,2013-04-14 20:30:00,
2013-04-14 14:40:00,60.4,28.8,29.69,SW,225,8.0,32.0,30,0.00,,,0.00,876,LWC V2.00 B727,2013-04-14 20:40:00,
2013-04-14 14:50:00,60.4,28.8,29.69,SW,225,8.0,32.0,30,0.00,,,0.00,876,LWC V2.00 B727,2013-04-14 20:50:00,
2013-04-14 15:00:00,62.8,30.1,29.70,SW,225,7.0,24.0,29,0.00,,,0.00,985,LWC V2.00 B727,2013-04-14 21:00:00,
2013-04-14 15:10:00,62.8,30.1,29.70,SW,225,7.0,24.0,29,0.00,,,0.00,985,LWC V2.00 B727,2013-04-14 21:10:00,
2013-04-14 15:20:00,62.8,30.1,29.70,SW,225,7.0,24.0,29,0.00,,,0.00,985,LWC V2.00 B727,2013-04-14 21:20:00,
2013-04-14 15:30:00,60.6,29.0,29.70,NNE,22,7.0,18.0,30,0.00,,,0.00,873,LWC V2.00 B727,2013-04-14 21:30:00,
2013-04-14 15:40:00,60.6,29.0,29.70,NNE,22,7.0,18.0,30,0.00,,,0.00,873,LWC V2.00 B727,2013-04-14 21:40:00,
2013-04-14 15:50:00,60.6,29.0,29.70,NNE,22,7.0,18.0,30,0.00,,,0.00,873,LWC V2.00 B727,2013-04-14 21:50:00,
2013-04-14 16:00:00,61.0,29.4,29.69,North,0,7.0,19.0,30,0.00,,,0.00,649,LWC V2.00 B727,2013-04-14 22:00:00,
2013-04-14 16:10:00,61.0,29.4,29.69,North,0,7.0,19.0,30,0.00,,,0.00,649,LWC V2.00 B727,2013-04-14 22:10:00,
2013-04-14 16:20:00,61.0,29.4,29.69,North,0,7.0,19.0,30,0.00,,,0.00,649,LWC V2.00 B727,2013-04-14 22:20:00,
2013-04-14 16:30:00,61.9,29.3,29.69,North,0,6.0,18.0,29,0.00,,,0.00,601,LWC V2.00 B727,2013-04-14 22:30:00,
2013-04-14 16:40:00,61.9,29.3,29.69,North,0,6.0,18.0,29,0.00,,,0.00,601,LWC V2.00 B727,2013-04-14 22:40:00,
2013-04-14 16:50:00,61.9,29.3,29.69,North,0,6.0,18.0,29,0.00,,,0.00,601,LWC V2.00 B727,2013-04-14 22:50:00,
2013-04-14 17:00:00,61.2,28.7,29.69,WSW,248,5.0,16.0,29,0.00,,,0.00,321,LWC V2.00 B727,2013-04-14 23:00:00,
2013-04-14 17:10:00,61.2,28.7,29.69,WSW,248,5.0,16.0,29,0.00,,,0.00,321,LWC V2.00 B727,2013-04-14 23:10:00,
2013-04-14 17:20:00,61.2,28.7,29.69,WSW,248,5.0,16.0,29,0.00,,,0.00,321,LWC V2.00 B727,2013-04-14 23:20:00,
2013-04-14 17:30:00,60.5,28.1,29.69,SW,225,5.0,19.0,29,0.00,,,0.00,338,LWC V2.00 B727,2013-04-14 23:30:00,
2013-04-14 17:40:00,60.5,28.1,29.69,SW,225,5.0,19.0,29,0.00,,,0.00,338,LWC V2.00 B727,2013-04-14 23:40:00,
2013-04-14 17:50:00,60.5,28.1,29.69,SW,225,5.0,19.0,29,0.00,,,0.00,338,LWC V2.00 B727,2013-04-14 23:50:00,
2013-04-14 18:00:00,59.1,26.9,29.70,North,0,4.0,13.0,29,0.00,,,0.00,199,LWC V2.00 B727,2013-04-15 00:00:00,
2013-04-14 18:10:00,59.1,26.9,29.70,North,0,4.0,13.0,29,0.00,,,0.00,199,LWC V2.00 B727,2013-04-15 00:10:00,
2013-04-14 18:20:00,59.1,26.9,29.70,North,0,4.0,13.0,29,0.00,,,0.00,199,LWC V2.00 B727,2013-04-15 00:20:00,
2013-04-14 18:30:00,59.1,26.9,29.70,North,0,4.0,13.0,29,0.00,,,0.00,199,LWC V2.00 B727,2013-04-15 00:30:00,
2013-04-14 18:40:00,57.5,27.1,29.70,North,0,4.0,14.0,31,0.00,,,0.00,96,LWC V2.00 B727,2013-04-15 00:40:00,
2013-04-14 18:50:00,57.5,27.1,29.70,North,0,4.0,14.0,31,0.00,,,0.00,96,LWC V2.00 B727,2013-04-15 00:50:00,
2013-04-14 19:00:00,57.5,27.1,29.70,North,0,4.0,14.0,31,0.00,,,0.00,96,LWC V2.00 B727,2013-04-15 01:00:00,
2013-04-14 19:10:00,56.8,27.3,29.70,North,0,3.0,12.0,32,0.00,,,0.00,43,LWC V2.00 B727,2013-04-15 01:10:00,
2013-04-14 19:20:00,56.8,27.3,29.70,North,0,3.0,12.0,32,0.00,,,0.00,43,LWC V2.00 B727,2013-04-15 01:20:00,
2013-04-14 19:30:00,56.8,27.3,29.70,North,0,3.0,12.0,32,0.00,,,0.00,43,LWC V2.00 B727,2013-04-15 01:30:00,
2013-04-14 19:40:00,55.0,26.4,29.71,North,0,2.0,10.0,33,0.00,,,0.00,18,LWC V2.00 B727,2013-04-15 01:40:00,
2013-04-14 19:50:00,55.0,26.4,29.71,North,0,2.0,10.0,33,0.00,,,0.00,18,LWC V2.00 B727,2013-04-15 01:50:00,
2013-04-14 20:00:00,55.0,26.4,29.71,North,0,2.0,10.0,33,0.00,,,0.00,18,LWC V2.00 B727,2013-04-15 02:00:00,
2013-04-14 20:10:00,53.0,26.1,29.72,NW,315,1.0,7.0,35,0.00,,,0.00,1,LWC V2.00 B727,2013-04-15 02:10:00,
2013-04-14 20:20:00,53.0,26.1,29.72,NW,315,1.0,7.0,35,0.00,,,0.00,1,LWC V2.00 B727,2013-04-15 02:20:00,
2013-04-14 20:30:00,53.0,26.1,29.72,NW,315,1.0,7.0,35,0.00,,,0.00,1,LWC V2.00 B727,2013-04-15 02:30:00,
2013-04-14 20:40:00,50.0,24.8,29.73,North,0,0.0,1.0,37,0.00,,,0.00,0,LWC V2.00 B727,2013-04-15 02:40:00,
2013-04-14 20:50:00,50.0,24.8,29.73,North,0,0.0,1.0,37,0.00,,,0.00,0,LWC V2.00 B727,2013-04-15 02:50:00,
2013-04-14 21:00:00,50.0,24.8,29.73,North,0,0.0,1.0,37,0.00,,,0.00,0,LWC V2.00 B727,2013-04-15 03:00:00,
2013-04-14 21:10:00,47.3,24.2,29.73,North,0,0.0,2.0,40,0.00,,,0.00,0,LWC V2.00 B727,2013-04-15 03:10:00,
2013-04-14 21:20:00,47.3,24.2,29.73,North,0,0.0,2.0,40,0.00,,,0.00,0,LWC V2.00 B727,2013-04-15 03:20:00,
2013-04-14 21:30:00,47.3,24.2,29.73,North,0,0.0,2.0,40,0.00,,,0.00,0,LWC V2.00 B727,2013-04-15 03:30:00,
2013-04-14 21:40:00,45.0,23.3,29.74,NNW,338,0.0,3.0,42,0.00,,,0.00,0,LWC V2.00 B727,2013-04-15 03:40:00,
2013-04-14 21:50:00,45.0,23.3,29.74,NNW,338,0.0,3.0,42,0.00,,,0.00,0,LWC V2.00 B727,2013-04-15 03:50:00,
2013-04-14 22:00:00,45.0,23.3,29.74,NNW,338,0.0,3.0,42,0.00,,,0.00,0,LWC V2.00 B727,2013-04-15 04:00:00,
2013-04-14 22:10:00,45.7,23.9,29.75,NNW,338,1.0,3.0,42,0.00,,,0.00,0,LWC V2.00 B727,2013-04-15 04:10:00,
2013-04-14 22:20:00,45.7,23.9,29.75,NNW,338,1.0,3.0,42,0.00,,,0.00,0,LWC V2.00 B727,2013-04-15 04:20:00,
2013-04-14 22:30:00,45.7,23.9,29.75,NNW,338,1.0,3.0,42,0.00,,,0.00,0,LWC V2.00 B727,2013-04-15 04:30:00,
2013-04-14 22:40:00,48.0,24.8,29.76,South,180,2.0,6.0,40,0.00,,,0.00,0,LWC V2.00 B727,2013-04-15 04:40:00,
2013-04-14 22:50:00,48.0,24.8,29.76,South,180,2.0,6.0,40,0.00,,,0.00,0,LWC V2.00 B727,2013-04-15 04:50:00,
2013-04-14 23:00:00,48.0,24.8,29.76,South,180,2.0,6.0,40,0.00,,,0.00,0,LWC V2.00 B727,2013-04-15 05:00:00,
2013-04-14 23:10:00,50.0,25.4,29.76,SSW,202,3.0,7.0,38,0.00,,,0.00,0,LWC V2.00 B727,2013-04-15 05:10:00,
2013-04-14 23:20:00,50.0,25.4,29.76,SSW,202,3.0,7.0,38,0.00,,,0.00,0,LWC V2.00 B727,2013-04-15 05:20:00,
2013-04-14 23:30:00,50.0,25.4,29.76,SSW,202,3.0,7.0,38,0.00,,,0.00,0,LWC V2.00 B727,2013-04-15 05:30:00,
2013-04-14 23:40:00,50.2,24.9,29.76,SSW,202,2.0,8.0,37,0.00,,,0.00,0,LWC V2.00 B727,2013-04-15 05:40:00,
2013-04-14 23:50:00,50.2,24.9,29.76,SSW,202,2.0,8.0,37,0.00,,,0.00,0,LWC V2.00 B727,2013-04-15 05:50:00,